Showing default

COSMOS 2145, 21301

Orbit data source: Space-Track

COSMOS 2145, 21301 is a payload satellite owned by UNKS RF (CIS) in LEO that was launched on Thu, 16 May 1991 UTC via a TSIKLON-3 launch vehicle from the Plesetsk Missile And Space Complex (PKMTR). Payload-class satellites include a variety of spacecraft equipped with specific instruments for various scientific and technological missions. These include communications satellites like Starlink; space stations such as the ISS; scientific satellites like the Hubble; Earth observation satellites from companies like Planet Labs, Umbra, and HawkEye 360; GPS; miniature CubeSats for education and research; and military/defense satellites.

Loading next visibility...
Identifier
21301, 1991-033C
Orbit
LEO
Country
Flag of CISCIS
Related business
Manufacturer
NPO PM
Mission
Defense Communications
Bus & Motor
STRELA-3, Unknown motor
Mass
225 kg wet, 225 kg dry
Launch date (UTC)
1991-05-16 (35 years ago)
Launch vehicle
TSIKLON-3
Launch site
Plesetsk Missile And Space Complex (PKMTR)
Object type
Payload
Rocket body
Debris
Shape & HBR
Cyl, 0.8 m
Radar Cross Section
1.257 m², Large (>1 m²)

Expand to show TLE details & history
Last TLE update: 2 days ago

TLE from 2 days ago
0 COSMOS 2145
1 21301U 91033C   26171.42991089  .00000032  00000-0  11748-3 0  9991
2 21301  82.5676 305.1773 0009483  85.5184 274.6990 12.63217064617917
Epoch: 2026-06-20T10:19Z
TLE epoch observation values (Epoch: 2026-06-20T10:19:04.300Z)
Latitude
-0.00012°
Longitude
-118.23528°
Altitude
1,411.827 km
Speed
7.155 km/s
True Right ascension
20h 20m 42s
True Declination
0° 00' 00"
Sunlit
Object was in full shadow at epoch
Visualization orbit readout
Latitude
Unknown
Longitude
Unknown
Altitude
Unknown
Speed
Unknown
Apparent Right ascension
Unknown
Apparent Declination
Unknown
Sunlit
N/A
Visualization observer readout
Local Sidereal Time
00:50:52
Azimuth
Unknown
Elevation
Unknown
Doppler factor
Unknown
Orbital elements
Apogee altitude
1,414.396 km
Perigee altitude
1,399.631 km
Semi-major axis
7,785.151 km
Eccentricity
0.00095
Inclination
82.5676°
RAAN
305.1773°
Arg. of periapsis
85.5184°
True anomaly
274.59069°
Mean anomaly
274.699°
Eccentric anomaly
274.64484°
Mean motion
3.15968 °/min
Orbital period
113.94 mins
BSTAR
0.00011748
Loading maneuver chart data...
Computing Atmospheric mass density...
Loading historical data...
Loading historical data...
Loading historical data...
Loading historical data...
Loading historical data...
Loading historical data...
Loading historical data...

Documentation

Showing up to 5 results
|